カタログに戻る

SL-8 R/B

運用中PO
NORAD 13618·ROCKET BODY·🇷🇺 Russia

打ち上げ Oct 19, 1982 から Plesetsk Cosmodrome

Loading…

次のパス (今後24時間)

TLE

最新Source: Space-Track

元期: Sep 14, 2026, 11:54 UTC

1 13618U 82102B   26257.49636046  .00000080  00000-0  65104-4 0  9990
2 13618  82.9707 159.3872 0032874  40.9222 131.6744 13.77064407205655

AllMySatでSL-8 R/Bをリアルタイム追跡

Download on the App Store